Big Rapids, MI

11:46 AM EDT on May 24, 2017 (GMT -0400)
Roben-Hood

Weather History for KRQB - December, 2011

Change the Weather History Date:

Friday, December 16, 2011

  Actual Average Record
Temperature  
Mean Temperature 28 °F -  
Max Temperature 30 °F 33 °F 56 °F (1984)
Min Temperature 27 °F 19 °F -8 °F (1989)
Degree Days  
Heating Degree Days 36    
Moisture  
Dew Point 23 °F    
Average Humidity 78    
Maximum Humidity 89    
Minimum Humidity 71    
Precipitation  
Precipitation 0.00 in - - ()
Sea Level Pressure  
Sea Level Pressure 30.22 in    
Wind  
Wind Speed 11 mph (NW)    
Max Wind Speed 18 mph    
Max Gust Speed 26 mph    
Visibility 10 miles    
Events      
Averages and records for this station are not official NWS values.
T = Trace of Precipitation, MM = Missing Value Source: NWS Daily Summary

Daily Weather History Graph

Daily Weather History Graph

Search for Another Location

Airport or City:

Trip Planner

Search our weather history database for the weather conditions in past years. The results will help you decide how hot, cold, wet, or windy it might be!

Date:

Astronomy

Dec. 16, 2011 Rise Set
Actual Time 8:09 AM EST 5:05 PM EST
Civil Twilight 7:36 AM EST 5:38 PM EST
Nautical Twilight 7:00 AM EST 6:14 PM EST
Astronomical Twilight 6:25 AM EST 6:49 PM EST
Moon 11:49 PM EST (12/16) 11:44 AM EST (12/16)
Length of Visible Light 10h 02m
Length of Day
8h 56m
Waning Gibbous, 65% of the Moon is Illuminated
Dec 16
Waning Gibbous
Dec 17
Last Quarter
Dec 24
New
Jan 1
First Quarter
Jan 9
Full

Hourly Weather History & Observations

Time (EST) Temp. Windchill Dew Point Humidity Pressure Visibility Wind Dir Wind Speed Gust Speed Precip Events Conditions
12:15 AM 30.7 °F 20.0 °F 22.5 °F 71% 30.04 in 10.0 mi West 15.0 mph 26.5 mph N/A   Overcast
12:35 AM 30.7 °F 18.8 °F 22.6 °F 72% 30.04 in 10.0 mi WNW 18.4 mph - N/A   Overcast
12:54 AM 30.7 °F 20.9 °F 22.5 °F 71% 30.05 in 10.0 mi WNW 12.7 mph - N/A   Overcast
1:15 AM 30.7 °F 20.9 °F 22.8 °F 72% 30.06 in 10.0 mi WNW 12.7 mph 20.7 mph N/A   Overcast
1:34 AM 30.7 °F 20.4 °F 23.0 °F 73% 30.07 in 10.0 mi WNW 13.8 mph 21.9 mph N/A   Overcast
1:54 AM 30.7 °F 20.0 °F 22.5 °F 71% 30.08 in 10.0 mi WNW 15.0 mph 20.7 mph N/A   Overcast
2:15 AM 30.7 °F 20.0 °F 22.6 °F 72% 30.10 in 10.0 mi WNW 15.0 mph 21.9 mph N/A   Overcast
2:35 AM 30.6 °F 21.2 °F 22.6 °F 72% 30.11 in 10.0 mi West 11.5 mph 21.9 mph N/A   Overcast
2:54 AM 30.7 °F 20.9 °F 22.3 °F 71% 30.13 in 10.0 mi WNW 12.7 mph 20.7 mph N/A   Overcast
3:15 AM 30.7 °F 20.4 °F 22.8 °F 72% 30.14 in 10.0 mi WNW 13.8 mph 18.4 mph N/A   Overcast
3:35 AM 30.6 °F 21.2 °F 22.8 °F 73% 30.15 in 10.0 mi WNW 11.5 mph 19.6 mph N/A   Overcast
4:15 AM 30.6 °F 20.7 °F 23.2 °F 74% 30.17 in 10.0 mi WNW 12.7 mph 17.3 mph N/A   Overcast
4:34 AM 30.6 °F 21.2 °F 23.9 °F 76% 30.17 in 10.0 mi NW 11.5 mph - N/A   Overcast
5:15 AM 30.4 °F 20.5 °F 23.7 °F 76% 30.18 in 10.0 mi NW 12.7 mph 17.3 mph N/A   Overcast
5:35 AM 30.2 °F 19.8 °F 23.7 °F 77% 30.18 in 10.0 mi NNW 13.8 mph 19.6 mph N/A   Overcast
5:54 AM 30.2 °F 22.6 °F 23.9 °F 77% 30.19 in 10.0 mi NNW 8.1 mph 16.1 mph N/A   Overcast
6:15 AM 29.8 °F 19.8 °F 23.9 °F 79% 30.20 in 10.0 mi NW 12.7 mph 18.4 mph N/A   Overcast
6:34 AM 29.7 °F 20.1 °F 23.9 °F 79% 30.20 in 10.0 mi NNW 11.5 mph - N/A   Overcast
6:54 AM 29.5 °F 19.9 °F 23.7 °F 79% 30.21 in 10.0 mi NNW 11.5 mph 17.3 mph N/A   Overcast
7:15 AM 28.9 °F 19.2 °F 24.1 °F 82% 30.22 in 10.0 mi NNW 11.5 mph - N/A   Overcast
7:34 AM 28.9 °F 21.9 °F 23.7 °F 81% 30.24 in 10.0 mi North 6.9 mph - N/A   Overcast
7:55 AM 28.4 °F 19.7 °F 23.5 °F 82% 30.25 in 10.0 mi NNW 9.2 mph - N/A   Overcast
8:55 AM 28.0 °F 19.3 °F 23.0 °F 81% 30.26 in 10.0 mi NNW 9.2 mph - N/A   Overcast
9:14 AM 28.0 °F 19.3 °F 22.5 °F 80% 30.26 in 10.0 mi NNW 9.2 mph - N/A   Overcast
9:35 AM 28.0 °F 19.3 °F 22.1 °F 78% 30.26 in 10.0 mi NW 9.2 mph - N/A   Overcast
9:55 AM 28.4 °F 19.1 °F 22.1 °F 77% 30.25 in 10.0 mi NW 10.4 mph - N/A   Overcast
10:14 AM 28.4 °F 19.7 °F 22.5 °F 78% 30.26 in 10.0 mi North 9.2 mph - N/A   Overcast
10:35 AM 28.2 °F 18.9 °F 22.8 °F 80% 30.26 in 10.0 mi North 10.4 mph 18.4 mph N/A   Overcast
10:55 AM 28.4 °F 20.4 °F 22.6 °F 79% 30.26 in 10.0 mi North 8.1 mph - N/A   Overcast
11:14 AM 28.8 °F 20.2 °F 23.0 °F 79% 30.27 in 10.0 mi NNW 9.2 mph - N/A   Overcast
11:35 AM 28.8 °F 19.5 °F 23.0 °F 79% 30.26 in 10.0 mi North 10.4 mph - N/A   Overcast
11:55 AM 28.9 °F 21.9 °F 23.0 °F 78% 30.26 in 10.0 mi North 6.9 mph - N/A   Overcast
12:14 PM 29.3 °F 21.5 °F 23.4 °F 78% 30.26 in 10.0 mi WNW 8.1 mph - N/A   Overcast
12:35 PM 29.3 °F 21.5 °F 23.2 °F 78% 30.27 in 10.0 mi West 8.1 mph - N/A   Overcast
12:54 PM 29.3 °F 21.5 °F 23.4 °F 78% 30.27 in 10.0 mi NW 8.1 mph - N/A   Overcast
1:14 PM 29.3 °F 21.5 °F 23.9 °F 80% 30.28 in 10.0 mi West 8.1 mph - N/A   Overcast
1:35 PM 29.3 °F 21.5 °F 23.7 °F 80% 30.27 in 10.0 mi WNW 8.1 mph - N/A   Overcast
1:55 PM 29.3 °F 21.5 °F 24.1 °F 81% 30.27 in 10.0 mi NW 8.1 mph - N/A   Overcast
2:14 PM 29.3 °F 22.3 °F 24.3 °F 81% 30.26 in 10.0 mi WNW 6.9 mph - N/A   Overcast
2:35 PM 29.1 °F 23.0 °F 24.8 °F 84% 30.26 in 10.0 mi NW 5.8 mph - N/A   Overcast
3:15 PM 28.9 °F 21.1 °F 26.1 °F 89% 30.26 in 10.0 mi WNW 8.1 mph - N/A   Overcast
3:35 PM 29.3 °F 22.3 °F 25.5 °F 86% 30.26 in 10.0 mi WNW 6.9 mph - N/A   Overcast
3:54 PM 28.9 °F 21.1 °F 24.8 °F 84% 30.25 in 10.0 mi NNW 8.1 mph - N/A   Overcast
4:35 PM 29.1 °F 20.0 °F 23.5 °F 80% 30.25 in 10.0 mi NW 10.4 mph - N/A   Overcast
4:54 PM 28.9 °F 21.9 °F 23.5 °F 80% 30.25 in 10.0 mi NNW 6.9 mph - N/A   Overcast
5:15 PM 28.8 °F 20.9 °F 23.5 °F 81% 30.25 in 10.0 mi NNW 8.1 mph - N/A   Overcast
5:35 PM 28.6 °F 23.5 °F 24.1 °F 83% 30.25 in 10.0 mi NNW 4.6 mph - N/A   Overcast
5:54 PM 28.4 °F 21.2 °F 24.1 °F 84% 30.25 in 10.0 mi NNW 6.9 mph - N/A   Overcast
6:14 PM 28.4 °F 21.2 °F 24.3 °F 84% 30.25 in 10.0 mi NNW 6.9 mph - N/A   Overcast
6:34 PM 28.2 °F 21.0 °F 24.1 °F 84% 30.26 in 10.0 mi NNW 6.9 mph - N/A   Overcast
7:15 PM 28.0 °F 21.7 °F 23.9 °F 84% 30.26 in 10.0 mi NNW 5.8 mph - N/A   Overcast
7:34 PM 28.0 °F 20.0 °F 23.2 °F 82% 30.26 in 10.0 mi NNW 8.1 mph - N/A   Overcast
7:55 PM 28.0 °F 21.7 °F 23.2 °F 82% 30.27 in 10.0 mi NNW 5.8 mph - N/A   Overcast
8:15 PM 28.0 °F 20.8 °F 23.0 °F 81% 30.27 in 10.0 mi NNW 6.9 mph - N/A   Overcast
8:34 PM 27.9 °F 19.1 °F 22.5 °F 80% 30.28 in 10.0 mi NW 9.2 mph - N/A   Overcast
8:55 PM 27.9 °F 17.8 °F 21.2 °F 76% 30.28 in 10.0 mi North 11.5 mph - N/A   Overcast
9:15 PM 27.9 °F 20.6 °F 21.9 °F 78% 30.28 in 10.0 mi NNW 6.9 mph - N/A   Overcast
9:35 PM 27.5 °F 21.1 °F 22.1 °F 80% 30.28 in 10.0 mi North 5.8 mph - N/A   Overcast
9:54 PM 27.5 °F 18.0 °F 20.5 °F 75% 30.28 in 10.0 mi NNW 10.4 mph - N/A   Overcast
10:15 PM 27.1 °F 18.9 °F 19.9 °F 74% 30.28 in 10.0 mi North 8.1 mph - N/A   Overcast
10:35 PM 27.3 °F 20.9 °F 20.3 °F 75% 30.28 in 10.0 mi North 5.8 mph - N/A   Overcast
10:54 PM 27.1 °F 21.8 °F 20.3 °F 75% 30.28 in 10.0 mi North 4.6 mph - N/A   Overcast
11:15 PM 27.1 °F 19.7 °F 19.8 °F 74% 30.28 in 10.0 mi North 6.9 mph - N/A   Overcast
11:34 PM 27.0 °F 19.5 °F 19.0 °F 72% 30.28 in 10.0 mi North 6.9 mph - N/A   Overcast
11:55 PM 27.0 °F 20.5 °F 18.9 °F 72% 30.28 in 10.0 mi North 5.8 mph - N/A   Overcast